Lapse_Rate
5.5 5.6 5.7 5.7 5.8 5.9 6.1 5.9 5.8 5.7 6.0 6.2 6.1 6.1 6.1 6.0 5.9 5.6 5.4 5.4 5.4 5.2 5.2 5.5 5.5 5.4 5.6 5.5 5.4 5.6 5.8 5.8 5.7 5.7 5.7 5.7 5.7 5.6
5.6 5.6 5.6 5.7 5.7 5.9 6.2 6.2 5.9 5.7 5.7 6.0 6.1 6.1 6.1 5.9 5.9 5.9 5.9 5.8 5.7 5.7 5.7 5.7 5.7 5.5 5.3 5.4 5.4 5.5 5.7 5.8 5.8 5.8 5.7 5.6 5.8 5.5
5.7 5.7 5.7 5.8 5.8 5.9 5.9 6.1 6.2 6.0 5.5 5.4 5.8 6.1 6.2 6.1 5.9 6.0 6.1 6.1 6.0 6.0 5.9 5.8 5.8 5.7 5.4 5.4 5.7 5.7 5.6 5.5 5.4 5.6 5.5 5.4 5.5 5.5
5.6 5.6 5.7 5.7 5.7 5.6 5.7 5.7 5.8 5.8 5.7 5.6 5.5 5.5 5.6 5.9 6.2 6.2 6.2 6.4 6.3 6.3 6.1 6.1 5.8 5.5 5.5 5.5 5.8 5.6 5.7 5.7 5.5 5.3 5.2 5.5 5.5 5.4
5.8 5.7 5.5 5.4 5.3 5.3 5.3 5.4 5.6 5.7 5.5 5.4 5.4 5.5 5.5 5.5 5.9 5.9 6.3 6.6 6.7 6.5 6.3 6.0 5.8 5.1 5.4 5.9 5.7 5.7 5.8 5.9 6.0 5.9 5.5 5.4 5.4 5.4
6.0 6.0 5.5 5.3 5.2 5.3 5.3 5.3 5.2 5.3 5.3 5.3 5.3 5.5 5.6 5.5 5.6 5.5 5.8 6.3 6.4 6.2 6.3 5.6 5.2 5.5 5.5 5.1 5.1 5.6 5.7 5.8 5.8 5.6 5.6 5.6 5.5 5.3
5.8 5.8 5.4 5.1 5.1 5.0 5.0 5.0 5.1 5.2 5.5 5.6 5.6 5.7 5.8 5.7 5.9 5.8 5.6 5.5 5.6 6.2 6.1 5.7 5.5 5.3 5.5 5.2 5.3 5.3 5.3 5.4 5.6 5.5 5.5 5.7 5.6 5.6
5.7 5.6 5.4 5.1 4.9 4.7 4.8 5.0 5.2 5.2 5.4 5.6 5.7 5.9 6.0 6.1 6.1 6.1 6.1 6.1 6.2 6.1 5.8 5.6 5.6 5.9 5.9 5.5 5.5 5.0 4.8 5.1 5.3 5.6 5.4 5.5 5.7 5.8
6.0 5.6 5.5 5.5 5.5 5.4 5.3 5.3 5.3 5.4 5.3 5.5 5.6 5.8 6.0 6.1 6.1 6.1 6.1 6.1 5.9 6.1 6.0 6.0 6.0 5.8 5.8 5.5 5.4 5.3 5.2 5.1 5.2 5.4 5.3 5.2 5.3 5.4
5.9 5.5 5.3 5.3 5.4 5.4 5.5 5.6 5.4 5.6 5.7 5.6 5.6 5.9 6.0 6.0 6.1 6.2 6.2 6.2 6.0 5.9 6.0 6.1 6.2 6.0 5.6 5.2 5.3 5.4 5.2 5.1 5.2 5.3 5.1 5.0 5.1 5.1
5.8 5.4 5.4 5.2 5.3 5.4 5.3 5.2 5.4 5.5 5.5 5.6 5.7 5.9 6.0 6.0 6.1 6.1 6.2 6.1 6.1 6.1 5.8 5.9 6.1 5.9 5.6 5.2 5.2 5.6 5.5 5.3 5.2 5.0 4.9 4.9 5.0 4.9
5.6 5.5 5.4 5.4 5.3 5.3 5.3 5.3 5.3 5.4 5.5 5.6 5.6 5.8 5.9 6.0 6.1 6.1 6.2 6.0 6.0 6.0 5.8 5.7 5.9 5.7 5.3 4.6 4.7 5.5 5.5 5.3 5.0 4.9 4.9 5.0 4.8 4.8
5.3 5.3 5.3 5.2 5.2 5.2 5.1 5.3 5.4 5.4 5.5 5.4 5.5 5.6 5.7 5.7 5.9 6.0 6.1 6.0 6.0 5.9 5.7 5.6 5.7 5.6 5.3 4.9 4.6 5.3 5.5 5.2 4.9 5.0 4.9 5.0 4.8 4.8
5.2 5.2 5.2 5.2 5.1 5.1 5.0 5.1 5.3 5.4 5.4 5.3 5.2 5.4 5.5 5.5 5.5 5.5 5.6 5.8 5.8 5.8 5.7 5.5 5.6 5.5 5.6 5.3 5.2 5.4 5.2 5.2 5.2 5.1 5.0 5.0 5.0 4.9
5.4 5.2 5.3 5.3 5.2 5.1 5.2 5.3 5.3 5.3 5.3 5.3 5.2 5.3 5.5 5.3 5.2 5.2 5.2 5.3 5.5 5.7 5.7 5.7 5.6 5.6 5.5 5.5 5.4 5.2 5.2 5.2 5.2 5.1 5.0 5.0 5.1 5.3
5.1 5.0 5.2 5.2 5.3 5.3 5.4 5.5 5.5 5.6 5.3 5.1 5.2 5.2 5.3 5.4 5.3 5.2 5.3 5.2 5.4 5.5 5.6 5.8 5.9 5.7 5.6 5.5 5.4 5.2 5.2 5.3 5.4 5.3 5.1 5.1 5.3 5.4
4.9 4.8 4.9 5.0 5.1 5.2 5.3 5.4 5.4 5.4 5.3 5.1 5.0 5.1 5.3 5.3 5.1 5.2 5.2 5.4 5.5 5.4 5.2 5.4 5.6 5.7 5.7 5.6 5.4 5.3 5.3 5.4 5.4 5.1 5.1 5.4 5.4 5.4
4.8 4.6 4.7 4.8 5.2 5.3 5.2 5.2 5.1 5.1 5.2 5.2 5.1 4.9 4.9 5.0 5.0 4.8 4.9 4.9 5.1 5.1 5.2 5.0 5.1 5.3 5.6 5.5 5.3 5.2 5.5 5.5 5.2 5.1 5.2 5.4 5.4 5.5
4.9 4.9 4.9 5.0 5.0 5.1 5.0 5.0 5.1 4.7 4.8 5.2 5.1 5.0 5.1 4.8 4.6 4.6 4.5 4.7 5.0 5.0 5.2 5.2 5.2 5.2 5.4 5.7 5.1 5.2 5.2 5.2 5.3 5.3 5.4 5.6 5.6 5.5
5.1 4.8 5.1 4.8 5.1 5.1 4.9 4.7 4.5 4.8 4.6 4.8 5.0 5.0 5.0 5.1 5.0 4.9 4.8 5.0 5.0 5.2 5.2 5.2 5.6 5.5 5.5 5.5 5.3 5.2 5.0 5.1 5.2 5.4 5.5 5.6 5.6 5.6
5.1 5.0 4.9 5.0 4.8 5.0 4.7 5.1 4.8 4.7 4.8 5.0 5.0 5.0 5.0 5.2 5.4 5.3 5.2 5.2 5.3 5.1 5.2 5.4 5.2 5.1 5.4 5.4 5.7 5.8 5.3 5.1 5.0 5.2 5.3 5.4 5.5 5.6
5.2 5.1 5.0 4.7 4.6 4.7 4.6 4.8 5.2 5.5 5.2 5.3 5.9 5.8 5.5 5.3 5.5 5.8 5.8 5.7 5.5 5.4 5.3 5.3 5.3 5.3 5.5 5.7 5.9 5.7 5.3 5.0 5.1 5.2 5.2 5.2 5.1 5.5
5.4 5.3 5.2 4.7 4.7 4.8 4.8 5.0 5.4 5.6 5.7 6.0 5.9 5.8 6.1 6.2 5.9 5.9 6.0 6.0 5.9 5.8 5.8 5.7 5.3 5.2 5.3 5.4 5.5 5.6 5.7 5.6 5.2 4.9 5.0 5.1 4.7 4.7
Wind_Speed
3 3 2 1 2 0 1 2 3 1 2 3 2 3 3 4 6 9 11 13 13 14 19 21 22 22 22 21 21 25 24 24 26 27 27 29 32 31
0 3 2 1 3 3 2 1 0 2 2 3 2 2 4 6 7 8 7 10 13 13 14 18 17 14 16 16 12 10 10 12 17 24 25 26 22 23
2 2 3 2 2 2 3 3 2 1 1 3 2 2 2 4 6 3 4 5 8 11 13 15 20 18 12 10 10 9 10 11 12 12 14 16 18 18
2 3 1 2 2 2 1 2 2 2 1 2 2 2 2 4 4 3 3 6 6 10 8 13 14 10 11 10 8 8 8 10 11 11 11 13 14 15
3 4 3 2 1 1 1 1 1 2 2 1 2 1 2 3 3 3 3 4 7 11 11 7 1 4 6 5 6 8 7 8 10 10 10 11 11 11
1 2 3 4 4 3 1 1 1 2 2 2 2 2 1 2 2 2 3 3 3 7 7 11 5 3 2 4 4 5 4 3 4 3 3 4 4 4
2 2 3 6 7 6 2 2 0 1 1 1 2 2 2 2 2 2 2 3 2 3 4 3 3 3 4 4 2 1 2 3 3 2 1 1 2 2
2 2 2 4 3 5 2 2 3 2 1 1 1 1 2 2 2 2 2 3 3 4 4 3 3 2 2 3 4 3 2 2 4 4 3 2 1 1
3 3 4 3 5 3 1 4 6 4 5 3 3 4 2 2 1 3 2 1 3 3 2 3 2 2 1 4 4 3 4 4 6 5 5 3 3 5
3 5 6 6 5 4 2 1 2 4 3 1 4 5 4 4 3 3 2 3 4 3 1 2 2 1 2 2 3 4 5 4 4 4 4 5 7 8
2 4 4 5 7 8 3 1 4 4 7 7 8 7 8 9 8 2 2 1 2 2 1 1 2 2 1 1 4 5 4 4 3 2 2 3 6 8
4 5 6 6 8 9 5 3 2 4 3 4 5 6 7 8 11 8 4 3 2 2 2 1 2 2 2 1 1 3 3 5 6 6 5 2 2 5
2 4 4 4 6 7 6 4 5 4 4 3 4 5 5 5 5 6 6 4 3 3 2 2 1 1 1 2 2 1 2 3 3 5 9 10 6 4
4 3 5 6 7 8 6 8 8 5 3 3 2 4 4 3 3 4 8 8 6 4 2 3 2 2 1 1 2 3 1 0 1 1 2 3 6 6
4 6 6 7 8 6 9 11 5 3 3 3 4 3 3 4 5 2 1 3 4 6 8 7 4 4 3 2 2 2 2 2 1 1 2 3 4 3
5 3 3 6 8 7 5 4 2 3 4 4 4 3 2 2 1 1 2 1 1 3 6 12 9 5 3 3 3 2 2 2 1 1 1 1 2 5
3 1 2 2 4 4 4 4 4 4 4 3 4 4 4 2 3 2 2 1 3 2 3 1 6 7 4 5 3 4 3 3 3 2 2 2 3 5
2 3 3 3 4 4 4 5 4 6 3 4 4 5 5 4 4 3 3 3 4 3 3 2 2 1 2 5 12 4 3 3 3 4 3 3 3 4
2 2 3 3 4 4 5 4 4 5 3 4 5 5 5 4 4 4 4 4 4 4 4 3 3 3 3 4 4 21 5 4 2 2 4 4 4 5
1 1 3 3 2 3 3 3 3 4 4 4 5 5 4 4 3 5 4 4 4 3 3 2 4 4 5 6 4 4 25 5 5 4 4 3 5 12
2 1 1 2 2 2 2 3 4 4 5 5 5 4 4 1 3 4 4 6 5 3 4 4 5 7 2 3 1 3 4 28 11 6 4 4 3 2
3 3 3 3 2 4 4 4 4 5 5 4 5 6 6 6 5 4 3 2 2 3 3 4 3 2 3 5 5 4 4 4 14 27 15 11 5 4
2 1 2 2 1 2 1 2 4 2 2 3 3 3 5 5 5 4 6 8 4 3 3 2 2 3 3 5 7 4 5 6 3 2 4 24 30 31
Wind_Direction
57 68 80 346 2 277 256 206 168 209 277 305 317 329 353 334 282 277 280 278 277 263 251 245 242 236 235 245 248 241 238 232 235 240 242 241 236 233
80 89 86 82 20 9 35 92 231 156 232 211 284 309 320 331 303 259 259 290 294 297 279 269 267 266 259 242 239 254 259 252 242 235 239 246 247 240
89 57 58 77 65 26 8 20 38 95 184 302 274 296 299 340 323 323 271 274 291 292 275 270 270 256 247 246 241 239 244 247 237 225 227 235 242 245
116 116 123 96 70 18 33 38 13 355 156 264 301 315 318 323 322 344 355 354 343 1 314 276 282 265 234 232 237 239 246 255 259 254 244 235 242 242
157 161 182 132 29 7 30 39 2 346 337 263 290 311 295 341 341 347 328 10 6 17 14 347 261 195 206 229 243 250 250 251 256 256 257 263 259 253
171 174 182 203 193 175 154 114 70 33 352 331 310 304 318 325 351 345 345 357 338 360 6 33 63 110 121 217 205 235 245 260 249 258 257 271 275 258
199 263 277 248 207 195 180 258 131 86 1 355 322 319 327 342 2 324 315 304 320 7 340 360 31 59 61 49 58 114 112 143 139 128 115 309 289 270
185 263 298 331 199 207 225 356 231 204 264 215 263 278 288 292 325 330 336 3 335 24 356 319 2 14 42 49 51 67 122 132 120 118 111 89 62 301
246 266 263 199 172 184 340 0 341 333 253 209 216 222 239 230 311 323 336 315 267 310 3 296 354 338 2 81 67 95 112 128 128 123 108 62 320 282
239 284 262 253 215 197 197 325 336 307 303 281 244 260 251 251 213 208 216 268 284 273 336 276 347 292 349 344 172 161 135 162 141 123 94 61 67 65
275 298 291 229 226 197 183 283 326 319 310 303 302 280 274 249 215 164 275 24 301 282 344 118 343 321 279 267 212 202 178 180 182 184 141 96 82 97
288 293 306 235 214 194 192 203 301 279 305 328 317 297 261 258 229 202 172 177 227 325 256 50 338 20 317 13 357 222 231 254 254 260 258 249 107 95
258 294 283 288 209 217 203 202 228 208 279 300 302 297 301 280 235 209 188 162 168 238 252 109 245 10 135 314 314 328 214 251 248 274 258 242 226 173
242 258 274 273 252 258 256 244 241 253 271 281 294 295 298 323 312 206 186 192 193 193 208 154 196 173 152 313 257 329 327 300 235 249 234 221 210 222
199 235 257 278 278 283 278 277 265 214 224 276 269 249 248 289 310 9 84 223 241 237 217 195 173 165 155 192 264 285 331 290 310 207 178 177 166 181
229 252 272 277 272 270 305 304 275 240 223 229 240 235 262 271 282 259 257 181 325 296 248 222 204 168 170 205 178 259 243 258 310 224 183 299 244 221
114 22 315 302 300 307 305 293 288 277 268 244 243 240 232 224 240 197 214 194 202 235 274 257 228 217 213 163 197 209 222 252 230 219 151 250 252 228
143 209 234 235 266 290 297 298 288 278 248 257 256 250 244 228 232 213 196 208 214 229 236 226 164 93 347 258 213 229 204 225 224 206 202 193 274 247
197 226 260 286 291 290 277 267 284 289 277 268 259 247 239 258 228 220 210 198 229 227 232 193 174 157 177 234 280 211 207 203 184 207 196 194 214 257
235 265 279 277 281 291 296 291 315 306 290 277 278 275 264 227 217 232 214 218 240 246 246 202 199 190 183 211 216 263 209 193 184 216 201 201 244 273
319 40 21 15 342 333 331 360 354 4 4 6 357 1 349 287 265 249 243 224 212 215 256 253 243 233 195 100 227 262 257 220 206 194 195 178 215 265
24 22 35 44 11 12 15 28 26 19 6 35 9 358 352 352 348 318 285 253 226 224 241 266 262 153 178 205 233 227 257 274 223 233 223 201 171 223
67 56 64 65 353 41 100 15 80 3 32 17 338 41 353 333 354 348 341 328 290 257 234 263 245 180 221 211 223 238 231 249 235 238 252 238 240 244